Regional Weather Roundup
Issued by NWS

Home | Current Version | Previous Version | Text Only | Print | Product List | Glossary Off
Versions: 1 2 3 4 5 6 7 8 9 10 11 12 13 14 15 16 17 18 19 20 21 22 23 24 25 26 27 28 29 30 31 32 33 34 35 36 37 38 39 40 41 42 43 44 45 46 47

000
ASUS43 KDMX 141507
RWRIA

WEATHER ROUNDUP FOR IOWA
NATIONAL WEATHER SERVICE DES MOINES IA
1000 AM CDT SUN SEP 14 2014

NOTE: "FAIR" INDICATES FEW OR NO CLOUDS BELOW 12,000 FEET WITH NO
SIGNIFICANT WEATHER AND/OR OBSTRUCTIONS TO VISIBILITY.

* - THESE STATIONS ARE NOT NWS STATIONS...THUS NOT UNDER NWS
QUALITY CONTROL.  THEY ALSO DO NOT REPORT WEATHER SUCH
AS PRECIPITATION OR FOG.

IAZ001>003-012>014-020>022-031>034-043>046-141600-
   NORTHWEST IOWA

CITY           SKY/WX    TMP DP  RH WIND       PRES   REMARKS
CARROLL *      SUNNY     59  48  67 SW10      30.21S
CHEROKEE *     SUNNY     54  48  82 SW5       30.19S
DENISON *      SUNNY     57  50  77 VRB6      30.19F
LE MARS *      MOSUNNY   52  48  87 S5        30.19S
ORANGE CITY *  SUNNY     54  45  71 CALM      30.18S
SHELDON *      SUNNY     52  46  82 CALM      30.17S
SIOUX CITY     PTSUNNY   54  47  77 S5        30.20R
SPENCER        SUNNY     55  46  71 W8        30.19R
STORM LAKE *   SUNNY     55  50  82 SW9       30.19F
$$

IAZ055>058-069>071-079>083-090>094-141600-
   SOUTHWEST IOWA

CITY           SKY/WX    TMP DP  RH WIND       PRES   REMARKS
ATLANTIC *     SUNNY     57  48  72 S13       30.23S
AUDUBON *      SUNNY     59  52  77 SW9       30.24R
CLARINDA *     SUNNY     59  48  67 S9G16     30.26R
COUNCIL BLFS * SUNNY     59  52  77 SW9       30.20F
CRESTON *      SUNNY     57  48  72 S14       30.25S
HARLAN  *      SUNNY     57  50  77 S7        30.25S
LAMONI         CLOUDY    57  47  69 S7        30.27R
SHENANDOAH *   SUNNY     61  48  63 S9        30.24S
$$

IAZ047>049-059>061-072>074-084-141600-
   CENTRAL IOWA

CITY           SKY/WX    TMP DP  RH WIND       PRES   REMARKS
AMES           MOSUNNY   58  48  69 S10       30.23F
ANKENY *       CLOUDY    57  48  72 S9        30.24F
CHARITON *     CLOUDY    57  46  67 SW12      30.27R
DES MOINES     PTSUNNY   58  47  66 S10       30.25S
GRINNELL*      CLOUDY    54  46  76 S7        30.27R
KNOXVILLE *    PTSUNNY   55  46  71 S9        30.25S
MARSHALLTOWN   CLOUDY    55  46  71 S12       30.24S
PELLA *        PTSUNNY   57  48  72 S7        30.28R
PERRY *          N/A     59  48  67 S12       30.23S
$$

IAZ004>006-015-016-023>025-035-036-141600-
   NORTH CENTRAL IOWA

CITY           SKY/WX    TMP DP  RH WIND       PRES   REMARKS
ALGONA *       SUNNY     55  46  71 SW10      30.20R
CLARION *        N/A     57  46  67 SW12      30.20S
ESTHERVILLE    SUNNY     53  45  74 W8        30.18R
FORT DODGE *   SUNNY     57  46  67 SW10      30.22R
MASON CITY     SUNNY     57  46  66 SW13      30.20F
FOREST CITY *  SUNNY     55  46  71 SW9       30.19S
IOWA FALLS *   PTSUNNY   57  45  62 S12       30.23F
$$

IAZ007>011-017>019-026>030-037>042-050>054-066-141600-
   NORTHEAST IOWA

CITY           SKY/WX    TMP DP  RH WIND       PRES   REMARKS
CEDAR RAPIDS   CLOUDY    53  46  77 S10       30.27S
CHARLES CITY * SUNNY     57  45  62 SW9G18    30.22S
CLINTON *      CLOUDY    55  45  67 SW8       30.33R
DECORAH *      CLOUDY    54  43  66 S10       30.21S
DUBUQUE        MOSUNNY   53  44  71 SW12      30.28S
MONTICELLO *   MOSUNNY   57  46  67 VRB7      30.28S
OELWEIN *      CLOUDY    54  45  71 SW12      30.25S
WATERLOO       CLOUDY    55  45  68 S12       30.24S
$$

IAZ064-065-067-068-078-141600-
   EAST CENTRAL IOWA

CITY           SKY/WX    TMP DP  RH WIND       PRES   REMARKS
DAVENPORT      CLOUDY    54  43  66 SW7       30.31R
IOWA CITY      CLOUDY    53  46  77 S7        30.30S
MT. PLEASANT * CLOUDY    57  45  62 S7        30.30F
MUSCATINE *    CLOUDY    54  46  76 S6        30.30F
QUAD CITIES    CLOUDY    55  44  66 SW5       30.30S
$$

IAZ062-063-075>077-085>089-095>099-141600-
   SOUTHEAST IOWA

CITY           SKY/WX    TMP DP  RH WIND       PRES   REMARKS
BURLINGTON     CLOUDY    53  47  79 S3        30.31R
FAIRFIELD *    PTSUNNY   57  45  62 SW10      30.29F
FORT MADISON * CLOUDY    57  46  67 CALM      30.31S
KEOKUK *       CLOUDY    55  46  71 S5        30.30S HAZE
OSKALOOSA *    PTSUNNY   57  48  72 SW10      30.28S
CENTERVILLE *  MOSUNNY   57  46  67 S9        30.30R
OTTUMWA        SUNNY     56  46  69 SW6       30.28S
WASHINGTON *   CLOUDY    54  48  82 S7        30.29S
$$

ABBREVIATIONS USED IN REMARKS
   TC - TEMPERATURES IN CELSIUS
  WCI - WIND CHILL INDEX
   HX - HEAT INDEX
  VSB - VISIBILITY
$$




USA.gov is the U.S. government's official web portal to all federal, state and local government web resources and services.